Skip Page Navigation
NASA JPL Caltech
NASA Logo - Jet Propulsion Laboratory + View the NASA Portal
+ Center for Near-Earth Object Studies
JPL Home Earth Solar System Stars & Galaxies Technology
JPL Solar System Dynamics
BODIES ORBITS EPHEMERIDES TOOLS PHYSICAL DATA DISCOVERY FAQ SITE MAP
JPL Small-Body Database Browser
Search: [ help ]  
183714 (2003 YO70)
Classification: Main-belt Asteroid          SPK-ID: 2183714
Ephemeris | Orbit Diagram | Orbital Elements | Mission Design | Physical Parameters | Discovery Circumstances ]

[ show orbit diagram ]
Orbital Elements at Epoch 2459000.5 (2020-May-31.0) TDB
Reference: JPL 12 (heliocentric ecliptic J2000)
 Element Value Uncertainty (1-sigma)   Units 
e .2297610533904387 4.7502e-08  
a 2.261833697516294 1.0457e-08 au
q 1.742152404580959 1.0705e-07 au
i 3.173589305582956 4.9974e-06 deg
node 149.5342068219223 9.9791e-05 deg
peri 222.3016337166153 0.00010054 deg
M 1.172428281185336 1.4025e-05 deg
tp 2458996.453558957088
(2020-May-26.95355896)
4.8384e-05 TDB
period 1242.480072193124
3.40
8.6167e-06
2.359e-08
d
yr
n .2897430776210015 2.0094e-09 deg/d
Q 2.781514990451628 1.286e-08 au
  Orbit Determination Parameters
   # obs. used (total)      356  
   data-arc span      9208 days (25.21 yr)  
   first obs. used      1994-02-13  
   last obs. used      2019-05-01  
   planetary ephem.      DE431  
   SB-pert. ephem.      SB431-N16  
   condition code      0  
   norm. resid. RMS      .53635  
   source      ORB  
   producer      Otto Matic  
   solution date      2019-Jul-13 18:08:44  

Additional Information
 Earth MOID = .743681 au 
 Jupiter MOID = 2.68201 au 
 T_jup = 3.582 
[ show covariance matrix ]

Ephemeris | Orbit Diagram | Orbital Elements | Mission Design | Physical Parameters | Discovery Circumstances ]

Physical Parameter Table
Parameter Symbol Value Units Sigma Reference Notes
absolute magnitude H 16.8   n/a MPO436907  

183714 (2003 YO70)          Discovered 2003-Dec-19 by LINEAR at Socorro
Reference: 20080420/Numbers.arcLast Updated: 2008-04-23
Ephemeris | Orbit Diagram | Orbital Elements | Mission Design | Physical Parameters | Discovery Circumstances ]
ABOUT SSD CREDITS/AWARDS PRIVACY/COPYRIGHT GLOSSARY LINKS
FirstGov 2020-Jul-12 12:32 UT
(server date/time)  
NASA Home Page
Site Manager:   Ryan S. Park
Webmaster  Alan B. Chamberlin